Wind_Speed
15 18 21 24 26 26 27 28 31 34 34 36 38 39 40 39 39 40 41 40 38 38 39 39 41 47 49 45 43 41 37 34 15 31 36 35 41 38 38 34 38 38 35
14 19 21 24 25 26 29 32 32 34 36 37 37 39 40 41 40 41 42 40 41 44 43 42 43 47 51 46 45 43 41 38 29 26 32 35 39 42 38 38 36 39 40
14 18 21 24 24 27 30 32 34 35 35 34 35 38 40 42 42 43 44 44 43 41 41 41 41 41 47 44 44 42 40 37 32 25 26 33 38 37 35 38 38 38 41
14 17 21 24 25 28 31 31 34 33 31 33 32 33 35 40 42 44 43 45 45 43 43 46 48 46 55 52 45 44 40 37 33 29 30 33 34 36 36 33 29 34 34
14 17 20 23 25 29 30 30 34 30 31 31 31 31 32 32 33 44 44 47 47 43 48 46 46 51 50 52 46 43 40 36 32 28 27 27 29 30 30 30 31 28 30
13 16 19 22 26 29 30 31 34 31 32 32 31 31 35 31 26 27 38 47 47 45 43 38 42 47 54 62 55 49 47 38 32 27 27 25 30 33 36 33 30 23 11
12 16 19 21 26 29 30 30 33 30 33 33 31 33 38 35 33 24 26 34 35 37 37 38 45 44 53 53 56 53 49 46 44 44 36 35 35 39 37 33 31 32 26
13 15 19 20 24 27 29 29 29 28 27 29 31 32 37 34 37 16 11 22 22 26 34 48 53 45 49 49 45 43 45 47 46 42 41 42 43 49 51 46 43 40 32
11 15 17 18 22 25 29 32 30 27 26 28 30 31 37 37 44 45 23 15 10 19 9 47 40 43 48 51 43 40 39 42 46 43 40 41 40 49 51 36 28 25 15
9 14 15 16 18 22 27 32 31 26 25 27 29 30 34 35 48 54 40 28 13 23 33 33 25 25 47 53 44 38 30 32 35 39 36 37 41 43 48 44 41 30 24
5 12 15 15 15 20 25 27 28 26 25 27 28 29 34 40 46 47 44 35 28 25 31 30 34 18 28 41 32 35 34 29 28 34 36 35 41 41 45 44 39 37 32
1 7 15 15 15 18 23 25 27 27 25 25 28 31 34 43 45 45 43 39 38 31 29 30 31 31 29 18 18 14 24 31 29 28 29 29 28 32 38 40 39 40 38
1 3 9 14 14 16 21 24 24 24 25 26 26 29 36 36 43 45 40 39 35 31 34 29 32 36 31 32 24 14 13 17 15 21 23 28 28 29 34 40 38 40 37
2 2 4 8 12 13 18 21 23 21 23 25 28 28 29 32 35 38 35 35 34 37 31 36 37 37 37 32 33 28 22 19 13 8 9 18 26 27 28 32 32 31 28
3 2 3 4 7 11 8 15 21 25 26 25 23 22 25 28 33 32 37 33 31 30 31 37 38 36 38 35 33 36 31 26 26 19 14 11 8 11 18 25 27 25 26
4 3 3 3 5 7 12 10 11 16 22 26 27 29 25 29 31 30 29 35 34 31 38 33 31 33 33 28 29 29 31 31 26 25 22 20 18 14 9 7 9 17 23
6 4 3 4 5 7 8 11 14 15 17 21 27 28 29 29 31 31 30 32 38 37 33 30 30 28 28 28 26 27 26 28 26 27 27 26 22 19 16 18 14 9 6
8 4 4 4 5 6 8 9 11 13 14 19 22 26 29 31 32 34 32 32 35 35 31 29 28 28 28 27 27 26 28 29 28 26 28 26 25 22 19 20 19 15 13
7 5 5 5 6 6 7 9 11 13 15 15 17 24 24 26 29 32 33 31 28 28 28 28 27 26 26 25 25 24 26 24 26 25 26 25 26 23 20 19 18 16 14
7 5 5 6 6 7 7 10 11 13 15 16 16 16 22 22 25 26 26 26 25 25 26 25 24 25 26 27 26 26 25 28 28 27 25 23 22 22 20 19 17 15 14
6 6 5 6 6 7 8 10 10 11 13 14 16 17 18 19 18 19 20 22 23 23 24 23 26 26 26 25 26 25 27 24 26 27 25 23 23 21 21 18 17 17 15
6 7 7 7 7 7 8 8 9 9 10 11 13 14 15 18 19 20 20 21 21 20 20 20 21 22 23 23 22 24 27 23 23 29 27 23 22 22 20 20 19 16 15
8 8 8 7 6 5 7 6 7 8 8 9 11 12 14 15 15 16 16 17 17 18 18 19 19 21 20 19 18 17 20 23 22 25 27 22 21 21 20 19 20 20 18
9 8 8 6 6 6 6 5 5 6 7 8 9 10 11 12 13 12 12 13 14 13 14 17 18 18 19 19 17 15 16 19 19 20 24 21 20 20 21 22 21 21 19
9 9 8 7 8 7 7 6 6 5 6 7 7 8 9 11 11 12 13 14 14 15 14 14 13 15 17 18 19 17 16 15 14 16 20 18 17 18 19 20 21 21 20
10 10 9 8 8 7 6 6 4 3 4 6 8 8 9 10 10 11 12 13 15 17 17 17 17 16 15 15 15 14 15 14 12 12 17 15 14 17 17 20 19 20 20
Wind_Direction
314 313 315 315 313 312 306 296 291 289 287 284 277 272 266 261 256 250 247 248 246 245 237 242 247 245 250 194 189 186 193 187 180 194 194 198 195 193 201 204 209 210 213
314 313 316 315 317 318 314 306 300 294 291 282 275 268 264 260 254 249 246 243 243 245 243 237 239 241 243 200 185 181 190 189 177 175 181 191 193 195 196 197 203 212 213
313 314 318 318 323 324 321 315 313 300 293 290 280 270 261 255 251 247 243 242 240 240 244 246 247 252 253 198 184 181 184 182 181 170 176 184 189 190 191 197 201 209 215
310 316 320 323 329 328 327 322 316 306 306 304 297 290 279 259 247 244 241 239 237 236 231 232 233 242 258 183 179 179 179 176 177 171 172 180 181 187 190 186 191 200 204
309 319 321 329 334 333 332 326 325 315 322 319 313 313 308 294 257 240 235 236 237 232 234 227 229 242 248 181 174 177 172 173 176 169 169 177 179 178 183 186 196 198 201
314 324 325 333 336 335 336 331 331 324 335 327 321 328 322 307 295 285 237 231 235 241 232 226 237 253 247 188 185 179 175 172 176 174 171 175 180 180 184 185 190 189 190
323 331 330 336 334 337 341 337 334 325 335 332 329 336 327 317 317 299 246 227 223 229 228 227 236 247 181 179 185 184 184 182 180 180 180 183 176 180 181 185 191 190 194
318 325 330 332 335 337 343 339 328 326 333 332 331 336 333 327 344 353 190 215 225 235 249 247 260 210 175 176 181 182 187 189 193 190 192 188 186 185 189 189 191 196 201
307 323 328 333 335 340 341 340 333 334 334 337 340 340 344 339 2 32 49 28 323 239 189 213 175 168 180 181 179 180 184 192 199 197 193 192 191 197 194 182 183 181 190
309 323 328 335 338 340 342 343 345 338 342 345 350 349 354 352 18 28 27 17 286 56 55 66 91 159 177 184 183 181 183 191 192 198 194 196 198 201 201 194 186 184 186
309 325 329 342 346 341 344 354 354 348 354 357 352 357 3 8 21 27 27 23 5 46 51 45 47 90 167 183 180 180 183 181 187 190 191 195 194 197 199 198 198 191 190
317 325 328 344 355 352 353 3 2 1 3 8 0 5 13 13 18 20 24 26 28 40 44 46 53 54 70 150 173 158 187 188 192 185 190 198 190 190 194 197 201 203 208
214 349 335 335 1 8 4 5 0 5 8 15 10 12 11 12 17 18 19 24 31 40 52 50 55 53 50 62 67 103 154 175 190 190 195 200 200 203 200 202 203 209 212
151 36 0 344 354 12 21 18 11 15 16 18 22 14 12 19 21 14 15 22 26 36 38 45 50 54 54 45 58 62 72 83 90 71 187 201 202 202 196 198 196 193 198
146 96 42 14 3 1 26 26 22 25 28 22 31 31 21 19 22 27 29 25 33 39 45 46 45 42 42 31 36 37 38 54 71 56 63 70 99 183 205 200 201 197 205
162 116 72 48 29 22 11 20 28 27 23 26 24 28 34 35 28 31 37 37 39 42 48 43 43 43 44 32 31 32 29 34 29 61 48 57 45 37 35 57 177 201 202
151 131 97 80 60 44 41 28 16 26 32 27 21 22 26 31 34 34 36 43 43 47 45 41 43 39 41 38 30 35 30 27 33 38 45 44 41 36 32 35 25 48 35
159 127 124 98 78 69 55 46 44 36 24 20 25 22 20 24 30 34 36 44 40 40 43 40 36 37 34 36 31 27 36 26 26 29 36 34 36 37 29 29 17 19 3
137 138 133 122 101 79 70 66 58 53 45 35 25 25 23 24 27 31 34 38 35 36 36 38 35 35 35 33 31 30 36 34 32 27 30 25 28 31 23 23 19 13 12
144 122 114 114 106 91 77 69 59 55 52 42 25 26 29 28 28 27 32 34 35 34 31 34 32 31 32 30 28 25 29 26 25 24 23 22 23 28 24 17 12 10 3
125 134 132 121 112 102 87 81 69 60 51 43 28 27 34 39 34 33 32 33 35 34 34 34 32 33 36 36 33 28 33 26 21 23 18 13 18 18 14 15 11 9 359
121 121 118 126 122 113 98 86 75 67 56 43 33 31 31 37 34 33 31 29 34 35 34 32 31 32 31 29 25 26 25 30 19 20 17 12 13 13 7 8 7 357 357
112 121 124 123 128 120 101 90 76 67 54 42 32 29 27 29 29 27 24 20 25 25 26 28 27 25 25 22 21 21 19 22 19 15 11 8 10 8 9 359 1 355 350
114 116 120 129 122 103 104 93 73 58 48 35 31 25 19 12 8 9 9 5 4 10 11 8 10 13 14 13 13 15 15 10 6 7 3 4 5 9 11 7 360 357 352
106 108 110 100 111 103 92 87 72 49 38 26 15 5 356 354 359 359 357 358 359 359 359 355 352 350 352 357 358 1 4 353 349 356 355 360 9 14 13 8 5 0 355
104 103 104 103 98 96 96 91 72 36 20 355 342 343 346 351 355 357 358 359 358 356 353 353 349 341 333 331 334 344 337 339 337 346 354 360 14 14 6 9 9 3 359
Height
775 775 773 772 770 766 761 756 752 747 742 736 732 728 725 722 721 719 716 716 713 713 714 715 713 719 718 697 707 716 725 730 738 756 761 771 777 781 789 794 801 807 812
773 771 769 768 764 759 754 749 744 737 732 726 720 715 711 708 706 704 701 700 697 696 699 709 699 707 701 687 693 703 714 721 727 740 751 762 768 773 780 786 792 799 803
769 768 766 763 758 753 748 742 736 729 722 714 708 701 695 691 688 686 684 683 683 681 675 672 669 675 679 673 680 691 702 712 722 729 740 752 758 766 774 780 784 792 796
766 765 763 759 753 748 742 736 730 722 712 704 697 689 680 673 669 667 666 664 666 668 673 674 674 676 679 654 666 680 692 701 712 721 731 742 749 757 765 771 780 785 789
763 762 760 755 749 743 737 732 724 714 706 697 688 678 668 659 651 646 646 645 641 649 653 651 655 662 657 646 657 671 681 692 702 712 722 734 741 749 756 764 771 778 782
760 758 756 751 746 741 734 727 717 709 700 691 682 671 661 649 638 629 627 625 622 618 625 630 634 635 637 637 649 661 667 678 692 702 712 720 729 738 747 753 763 771 776
757 755 753 750 745 738 732 723 715 707 697 688 678 668 657 642 629 613 607 608 612 606 611 617 632 632 616 629 641 653 664 672 677 688 699 708 717 725 736 746 753 758 763
754 752 751 749 743 737 729 722 715 706 698 688 677 666 655 639 623 599 591 594 596 596 593 597 599 610 609 623 635 647 657 666 677 685 693 700 704 711 718 728 738 746 755
752 751 750 747 741 735 728 720 713 705 697 687 677 664 651 632 614 586 583 586 592 604 596 586 583 588 605 620 628 640 650 660 670 681 688 694 700 705 711 723 733 742 750
751 748 749 746 740 734 728 720 712 705 698 687 677 666 656 637 615 593 596 600 607 572 572 576 578 591 599 613 621 633 642 654 664 674 683 689 695 700 706 710 718 729 738
750 747 746 744 739 734 727 721 714 706 699 689 679 670 655 639 624 624 614 609 597 583 586 587 597 595 603 613 619 628 638 650 658 665 674 682 687 693 699 705 711 718 725
749 747 743 742 739 733 728 722 715 706 700 695 684 673 663 644 639 629 628 617 607 600 602 604 609 609 606 615 622 625 636 646 655 661 667 675 679 685 691 698 704 709 715
748 747 744 740 738 735 729 723 717 709 702 699 690 674 665 663 650 645 642 632 629 625 621 624 617 612 617 619 627 631 635 644 650 656 660 667 672 681 685 691 697 702 709
745 745 744 742 737 735 732 727 721 715 707 702 696 692 687 681 672 667 660 652 641 633 634 627 626 628 634 637 633 638 642 643 649 654 659 664 669 674 678 683 688 694 703
743 744 744 743 739 736 734 730 724 719 716 711 713 716 707 693 691 685 675 671 662 658 649 643 643 647 644 649 651 653 654 654 650 659 663 663 664 670 674 678 681 685 692
742 743 743 742 741 738 735 733 731 726 720 717 714 710 712 712 701 695 694 683 672 665 659 663 664 661 663 671 668 666 668 665 667 664 669 668 671 673 673 672 676 680 684
740 742 742 742 741 740 738 736 733 730 728 723 717 715 713 712 710 704 696 686 683 675 678 680 679 682 682 681 686 681 681 681 681 676 675 675 675 677 678 676 679 677 684
739 741 741 741 741 741 740 739 738 736 733 730 727 721 714 709 706 704 701 696 695 696 697 695 694 693 690 690 693 694 689 691 687 686 681 683 683 683 682 682 685 685 687
738 740 740 741 742 742 742 742 741 740 739 737 733 728 724 719 712 706 702 701 702 703 703 702 705 706 706 707 705 703 699 703 700 696 692 690 687 685 689 689 690 690 689
738 739 740 741 742 743 743 743 744 743 742 740 738 736 733 728 724 722 720 718 716 714 713 713 714 714 711 710 709 709 704 706 703 701 701 701 699 697 697 696 696 695 695
737 738 739 741 742 743 744 744 745 744 744 743 742 739 739 737 736 734 732 730 727 725 724 723 722 720 718 719 717 716 714 713 713 706 706 707 703 700 701 700 699 697 697
738 738 740 741 742 744 745 745 746 746 746 745 744 743 741 740 739 737 736 734 733 733 732 731 729 726 723 723 723 721 721 720 720 712 710 712 707 706 706 704 702 702 700
738 739 741 742 744 745 746 747 747 748 747 747 746 745 743 742 742 741 740 739 737 736 736 735 733 731 730 730 730 728 726 723 721 716 716 718 714 711 709 707 703 701 700
740 741 743 744 745 746 747 748 749 749 749 749 748 747 746 745 744 743 742 741 740 739 737 735 734 734 734 732 730 728 726 724 724 721 721 720 716 711 709 706 703 701 699
742 743 744 745 746 748 748 749 750 750 750 750 750 749 748 747 746 744 742 741 739 738 737 736 736 734 732 729 728 725 725 726 726 723 722 720 715 713 710 707 704 701 698
744 744 746 747 748 749 750 751 752 752 752 751 750 749 748 747 746 745 743 742 739 737 735 734 733 733 731 730 729 728 730 729 728 725 721 720 719 715 713 711 707 705 700